Terminal Aerodrome Forecast
Issued by NWS

Home | Current Version | Previous Version | Text Only | Print | Product List | Glossary On
Versions: 1 2 3 4 5 6 7 8 9 10 11 12 13 14 15 16
751
FTUS46 KHNX 130520
TAFMCE
TAF
KMCE 130520Z 1306/1406 00000KT 4SM BR SCT200
     FM130900 00000KT 2SM BR SCT200
      TEMPO 1310/1314 3/4SM BR
     FM131700 VRB03KT 5SM HZ SCT200
     FM131900 32011KT P6SM SKC
     FM140200 31005KT P6SM SKC=

USA.gov is the U.S. government's official web portal to all federal, state and local government web resources and services.